Location: Casilda
(33.0440°S, 61.1680°W)
Time: 18:43:42
(UTC-03:00)

ISS - Pass Details

Date: 29 November 2021
Orbit: 417 x 423 km, 51.6° (Epoch: 28 November)

Event Time Altitude Azimuth Distance (km) Brightness Sun altitude
Exits shadow 04:29:48 - 244° (WSW) 1,606 -1.1 -14.8°
Reaches altitude 10° 04:30:15 10° 238° (WSW) 1,516 -1.1 -14.8°
Maximum altitude 04:31:51 13° 209° (SSW) 1,363 -1.1 -14.5°
Drops below altitude 10° 04:33:27 10° 181° (S) 1,522 -0.4 -14.2°
Sets 04:36:33 0° 151° (SSE) 2,392 1.4 -13.7°
